Temperature
15 15 15 16 20 21 22 23 23 22 22 22 22 23 24 25 25 23 19 18 18 18 17 17 17 17 17 17 17 17 17 17 17 17 17 17 16 16 16 16 16 16 15 16 15 15 15 15 15
14 15 15 18 21 21 22 23 22 23 22 20 20 21 23 23 20 18 18 18 18 18 17 17 17 17 17 17 17 17 17 17 17 17 16 16 16 16 16 16 16 16 15 15 15 15 15 15 15
14 15 16 19 20 22 23 22 22 21 20 20 21 21 22 21 19 18 18 18 17 17 17 17 17 17 17 17 17 17 17 17 16 16 16 16 16 16 16 16 16 16 15 15 15 15 15 15 15
14 15 17 19 20 22 22 22 21 21 20 20 21 22 20 18 17 17 18 17 17 17 16 17 17 17 16 16 17 17 17 16 16 16 16 16 16 16 16 15 15 15 15 15 15 15 15 15 15
14 17 18 19 20 21 21 20 20 21 21 20 21 22 20 17 17 18 17 17 17 16 16 16 16 16 16 16 16 16 16 16 16 16 16 16 15 15 15 15 15 15 15 15 15 14 15 15 15
15 17 19 20 20 21 21 19 20 21 21 20 20 21 19 17 17 17 17 16 16 16 16 16 16 16 16 16 16 16 16 16 16 16 16 15 15 15 15 15 15 15 15 14 14 14 14 14 14
16 17 19 20 20 20 20 19 20 21 21 20 20 21 19 16 16 17 16 16 16 16 16 16 16 16 16 16 16 16 16 16 16 16 15 15 15 15 15 15 15 14 14 14 14 14 14 14 14
14 17 18 19 19 20 20 19 19 20 21 19 19 21 19 16 16 16 16 15 15 15 15 15 15 15 15 15 16 16 16 15 15 15 15 15 15 15 14 14 14 14 14 14 14 14 14 14 14
13 16 17 19 19 20 19 19 18 17 19 18 17 18 17 16 16 16 15 15 15 15 15 15 15 15 15 15 15 15 15 15 15 15 15 15 14 14 14 14 14 14 14 14 14 14 14 14 14
14 16 17 18 19 19 18 19 18 18 19 18 17 16 16 16 15 15 15 15 15 15 15 15 15 15 15 15 15 15 15 15 14 14 14 14 14 14 14 14 14 14 14 14 14 14 13 13 13
14 15 17 16 16 17 17 18 17 19 19 19 18 16 15 15 15 15 15 15 15 15 15 15 15 15 15 15 15 15 15 14 14 14 14 14 14 14 14 14 14 14 14 13 13 13 13 13 13
14 15 15 16 15 15 16 17 17 18 18 17 17 17 15 15 15 15 15 15 14 14 15 15 15 15 15 15 15 14 14 14 14 14 14 14 14 14 14 14 14 14 13 13 13 13 13 13 13
14 14 14 14 14 14 15 16 16 16 16 16 16 16 15 15 15 15 14 14 14 14 15 15 15 15 15 15 14 14 14 14 14 14 14 14 14 13 13 13 13 13 13 13 13 13 13 13 12
14 14 14 14 14 14 15 15 15 16 15 15 15 15 15 15 15 14 14 14 14 14 14 15 15 15 15 15 14 14 14 14 14 14 14 14 13 13 13 13 13 13 13 13 13 12 12 12 12
12 13 14 14 14 14 15 15 16 15 15 15 15 15 15 15 14 14 14 14 14 14 14 15 15 15 14 14 14 14 14 14 14 14 14 13 13 13 13 13 13 13 13 12 12 12 12 12 12
13 13 13 14 14 14 15 15 17 15 15 15 15 15 15 14 14 14 14 14 14 14 14 15 15 15 14 14 14 14 14 14 14 14 13 13 13 13 13 13 13 13 12 12 12 12 12 12 12
12 13 13 14 14 14 14 15 16 14 15 15 15 15 15 14 14 14 14 14 14 14 14 14 15 14 14 14 14 14 14 14 14 13 13 13 13 13 13 13 13 12 12 12 12 12 12 11 11
12 13 13 14 14 14 14 15 15 14 14 16 15 15 14 14 14 14 14 14 14 14 14 14 14 14 14 14 14 14 13 13 13 13 13 13 13 13 13 12 12 12 12 12 11 11 11 11 11
13 12 13 13 13 13 14 15 15 15 14 15 15 15 15 14 14 13 13 13 13 14 14 14 14 14 14 14 14 13 13 13 13 13 13 13 13 13 12 12 12 12 12 11 11 11 11 11 10
11 12 12 12 12 13 13 14 15 15 15 15 15 15 15 14 13 13 13 13 13 13 14 14 14 14 14 14 13 13 13 13 13 13 13 13 12 12 12 12 12 12 11 11 11 11 11 10 10
11 11 12 12 12 12 12 14 15 15 14 14 14 14 14 13 13 13 13 13 13 13 14 14 14 14 14 13 13 13 13 13 12 12 12 12 12 12 12 12 11 11 11 11 11 10 10 10 10
10 11 12 11 11 12 12 13 15 15 14 14 14 14 14 13 13 12 12 13 13 13 13 13 13 13 13 13 13 13 12 12 12 12 12 12 12 12 12 11 11 11 11 11 10 10 10 10 9
11 11 11 11 11 11 12 12 15 14 14 15 15 14 13 12 12 12 12 13 13 13 13 13 13 13 13 13 12 12 12 12 12 12 12 12 12 11 11 11 11 11 11 10 10 10 10 9 9
10 10 10 10 10 10 12 12 14 14 15 15 15 13 12 12 11 11 11 12 12 12 13 13 13 12 12 12 12 12 12 12 11 11 11 11 11 11 11 11 11 10 10 10 10 10 9 9 9
9 9 9 9 9 11 12 12 14 14 14 14 14 13 11 11 10 10 11 11 11 12 12 12 12 12 12 12 12 11 11 11 11 11 11 10 10 10 11 10 10 10 10 10 9 9 9 9 8
9 10 10 10 11 12 11 12 14 12 12 11 11 11 10 10 9 9 10 10 11 11 11 11 11 11 11 11 11 11 11 10 10 10 10 10 10 10 10 10 10 10 9 9 9 9 9 8 8
8 9 10 10 10 11 11 12 12 11 11 10 10 10 9 9 8 9 9 9 10 11 11 11 11 11 11 11 10 10 10 10 10 10 10 10 9 10 9 9 9 9 9 9 9 8 8 8 8
9 9 9 9 10 11 12 11 12 11 10 10 10 9 8 8 8 8 8 9 9 10 10 10 10 10 10 10 10 10 10 9 9 9 9 9 9 9 9 9 9 9 9 8 8 8 8 7 7
7 7 8 9 10 11 11 12 11 10 10 9 9 8 7 7 7 7 7 8 8 8 9 9 9 10 10 10 9 9 9 9 9 9 9 9 8 8 8 8 8 8 8 8 8 7 7 7 7
7 7 8 8 8 9 11 11 9 9 9 8 8 7 6 6 6 6 6 7 7 7 8 8 9 9 9 9 9 9 9 9 8 8 8 8 8 8 8 8 8 8 7 7 7 7 7 6 6
Wind_Speed
3 3 3 3 5 6 12 8 5 6 6 4 4 5 6 5 3 2 5 12 14 17 18 19 17 17 17 17 17 16 16 16 15 15 15 14 14 13 13 13 13 13 13 13 13 13 13 13 13
3 3 4 5 8 11 10 10 9 7 4 4 5 5 5 4 2 5 7 12 15 17 17 18 19 17 17 17 17 16 16 16 15 15 14 14 13 13 13 12 12 13 13 12 13 13 13 13 13
4 4 5 5 9 13 8 6 9 5 5 5 5 4 3 2 4 5 8 14 16 16 17 18 19 18 18 17 17 16 16 15 15 14 14 13 13 13 13 12 12 12 12 12 12 12 12 12 12
5 5 5 9 15 13 7 3 5 7 6 5 5 5 3 2 2 5 11 15 16 15 17 19 18 18 17 17 17 16 16 15 14 14 14 13 13 13 12 12 12 12 12 12 12 12 12 12 11
5 5 9 12 16 11 9 5 5 8 8 7 6 5 5 3 3 8 13 15 16 15 15 19 18 17 17 17 16 16 15 15 14 13 13 13 13 13 12 12 12 12 11 11 11 11 12 12 11
6 6 11 17 16 11 10 8 7 8 7 6 6 6 4 4 6 10 13 13 14 14 14 17 17 17 17 17 16 16 15 14 14 13 13 13 13 13 12 11 11 11 11 11 10 10 11 11 11
8 8 13 16 15 13 10 9 10 9 9 7 5 6 5 6 7 10 12 12 13 13 13 14 16 16 16 16 16 15 15 14 13 13 12 13 12 12 11 11 10 10 10 10 10 10 10 10 10
6 7 12 13 14 13 8 8 7 10 8 4 5 5 6 8 10 11 11 11 12 12 12 12 14 14 15 15 15 15 14 14 13 12 12 12 12 11 10 10 10 9 9 10 10 10 10 10 9
6 9 15 14 12 9 8 9 6 4 6 5 3 0 4 12 13 13 12 11 11 11 11 11 12 12 13 13 14 14 13 13 12 11 12 11 9 9 8 8 9 9 9 9 9 9 9 8 8
9 14 16 9 7 6 8 9 7 7 9 8 5 4 9 13 14 15 15 15 14 13 11 10 11 11 11 11 12 11 10 11 10 10 10 8 7 6 7 9 9 8 8 9 9 8 7 4 5
10 13 11 8 6 5 6 7 7 9 10 10 10 11 13 14 14 15 15 15 14 13 11 10 10 10 10 9 9 8 8 8 8 9 9 7 7 6 6 6 7 7 7 6 6 5 4 4 3
10 12 10 8 5 5 6 6 7 10 7 3 7 11 14 15 15 15 15 14 13 13 12 10 10 9 9 9 8 8 7 7 7 8 8 7 6 5 5 5 5 5 4 4 4 3 4 3 3
13 11 10 8 7 6 6 8 7 8 6 4 6 12 15 15 15 14 13 13 13 12 12 11 10 10 9 8 6 7 7 7 7 7 7 7 6 5 5 4 5 4 4 4 3 3 3 3 2
11 10 8 8 8 8 9 9 9 9 6 6 9 12 14 15 15 14 13 13 13 13 12 11 11 10 10 8 7 6 6 7 7 6 7 7 6 5 5 4 4 4 4 3 3 3 2 2 2
7 9 10 10 10 8 8 12 14 9 8 9 10 12 13 13 14 14 14 13 13 12 11 11 10 10 10 9 8 6 7 7 6 6 7 7 6 6 5 4 4 4 4 4 3 3 2 2 2
10 11 12 10 10 9 11 16 12 8 10 11 12 12 12 13 14 13 13 12 12 11 11 10 9 10 10 8 8 6 7 7 6 6 6 7 7 7 5 4 4 4 4 4 3 3 2 2 2
10 14 15 11 10 9 13 13 9 8 11 12 12 13 13 13 13 12 12 12 11 11 12 11 10 10 9 8 7 6 6 5 5 6 6 6 7 7 6 4 4 5 4 3 3 3 2 2 1
14 14 14 13 8 11 14 14 10 9 11 12 12 12 12 13 13 12 11 11 11 11 11 11 11 10 9 7 6 5 5 4 5 5 6 7 7 7 6 5 5 5 4 4 4 3 2 2 2
11 13 13 11 6 10 14 15 13 11 12 13 13 12 13 13 11 11 10 11 11 11 11 11 10 10 9 7 7 6 5 5 4 4 6 7 7 7 6 5 5 5 4 5 5 4 3 2 2
12 13 12 7 6 8 12 15 14 13 14 13 13 13 13 12 11 11 11 11 12 12 12 11 11 10 10 8 6 5 5 4 4 4 5 6 6 7 6 6 5 5 4 5 5 5 3 2 2
14 15 13 8 5 7 8 13 15 13 13 13 13 12 12 12 13 13 12 12 11 12 12 10 11 10 10 9 6 5 4 4 4 4 4 5 6 6 6 6 6 5 5 5 5 6 5 4 3
13 12 11 9 8 6 8 9 12 12 13 14 14 13 12 12 12 11 12 12 12 11 10 10 11 10 10 10 9 10 7 7 6 5 4 5 5 6 6 6 6 6 5 5 5 5 5 5 4
9 9 10 10 9 7 9 8 8 9 13 14 14 13 12 11 11 11 11 11 10 9 9 9 10 10 10 10 10 10 8 6 5 5 6 5 4 5 5 5 5 5 5 5 5 5 5 5 5
6 7 5 5 6 9 13 12 9 9 13 13 12 11 10 9 9 9 9 9 8 8 8 8 9 9 9 10 10 10 9 8 7 7 6 5 4 4 5 5 5 5 5 5 5 5 5 5 5
9 8 5 7 8 9 9 10 9 4 6 9 9 8 7 7 8 8 8 9 9 9 9 9 9 9 9 9 9 9 9 9 9 8 7 6 5 4 5 5 5 5 5 5 5 5 4 5 5
11 11 7 6 8 5 7 10 5 1 2 3 5 6 6 6 6 7 8 8 8 9 9 9 9 8 8 8 8 8 8 7 6 7 6 6 5 5 5 5 5 5 5 4 4 4 4 4 5
8 9 5 3 2 4 7 5 4 1 1 1 3 4 5 5 5 6 6 7 8 8 8 9 9 8 8 7 7 7 7 7 6 6 5 4 4 4 5 5 4 4 4 4 4 4 4 4 4
5 6 4 5 6 6 6 6 3 2 2 2 2 3 3 3 4 4 5 6 6 7 7 8 8 8 7 7 6 5 6 6 6 5 5 5 4 4 5 5 5 4 4 4 4 4 4 4 4
5 6 5 5 4 5 5 3 0 2 2 2 2 2 2 2 3 3 3 4 5 6 6 7 7 7 6 6 6 6 5 5 5 5 5 4 4 5 5 5 5 5 5 5 4 4 4 4 4
5 6 7 6 4 4 4 2 3 2 2 0 1 1 2 2 2 3 4 4 5 6 6 6 6 6 6 6 6 5 4 4 4 4 4 4 4 4 4 5 5 5 5 5 5 5 4 4 4
Wind_Direction
247 232 210 205 211 223 232 220 212 186 191 196 189 197 202 191 189 111 109 149 146 148 149 150 145 143 138 134 129 127 126 125 124 122 119 116 114 111 109 106 103 100 98 95 95 94 94 93 92
221 197 200 211 223 221 223 216 208 198 171 162 181 196 197 193 71 100 137 149 149 148 150 151 143 143 140 136 133 131 129 128 125 123 122 120 117 113 110 107 104 100 98 97 97 96 94 94 92
197 208 207 209 224 225 219 202 207 188 178 185 179 194 201 151 124 127 137 149 150 149 150 144 143 144 142 140 138 135 132 130 128 126 125 123 119 115 110 108 106 102 100 100 99 97 95 93 92
188 190 212 226 225 224 229 176 179 179 179 195 187 169 152 73 104 126 142 151 150 149 149 144 145 145 143 142 140 138 136 133 131 129 127 124 121 117 112 108 106 104 103 103 101 98 96 94 92
206 203 209 224 229 223 225 217 187 190 183 184 194 177 145 103 101 133 148 153 151 149 147 147 147 146 145 144 141 139 138 135 132 131 128 125 121 117 114 111 108 107 107 104 101 99 96 93 92
194 210 218 223 221 219 218 213 204 205 193 184 192 181 141 114 137 144 150 153 151 148 147 147 146 145 145 144 143 142 140 138 135 133 128 125 122 119 118 116 114 111 107 104 102 102 100 97 94
208 209 226 228 223 219 213 205 213 209 203 194 189 179 152 141 139 147 150 150 149 149 149 150 153 150 146 144 143 142 141 139 137 135 131 127 124 123 121 118 116 115 110 106 104 104 104 100 95
223 218 227 225 222 219 203 198 215 216 209 179 192 196 170 156 146 147 145 147 149 152 153 153 156 155 154 150 143 141 140 138 136 135 132 129 128 127 126 125 118 117 113 109 107 106 104 102 96
211 223 224 218 219 215 196 199 200 211 197 183 191 169 110 137 146 147 148 152 155 157 159 159 157 155 154 151 147 146 143 141 143 140 137 142 145 140 136 122 119 120 119 115 114 111 107 107 102
206 224 227 223 224 216 199 207 194 189 196 199 186 138 130 145 156 160 164 165 165 165 164 163 162 158 156 153 155 157 155 156 160 155 154 157 150 142 135 122 120 121 124 122 117 116 120 126 116
209 227 228 225 231 231 212 208 201 205 208 210 200 172 159 163 168 173 174 173 171 168 165 166 164 161 160 159 160 159 159 160 162 160 159 157 151 147 148 146 144 141 142 137 133 139 123 111 103
218 229 230 227 227 227 224 217 216 220 224 222 204 173 169 176 179 180 178 176 172 171 172 170 169 167 167 165 164 164 163 163 162 165 166 163 156 156 154 156 155 154 153 149 147 134 120 115 112
224 227 228 232 229 236 236 231 237 239 247 225 182 176 181 186 186 184 180 176 175 176 175 175 175 173 171 170 169 171 169 167 165 167 173 172 164 163 159 158 156 157 155 153 143 142 132 127 116
220 225 227 234 233 234 235 244 242 240 227 209 188 187 190 190 188 185 183 182 182 181 178 176 178 177 176 176 176 174 173 169 169 170 174 175 170 167 166 163 159 159 159 152 147 143 144 139 129
209 219 230 234 232 228 230 242 234 232 217 212 205 197 196 195 193 193 190 188 185 182 179 177 177 179 180 179 178 174 174 173 173 173 175 176 174 172 170 168 163 160 157 152 148 144 149 149 142
204 217 226 223 223 220 219 237 225 211 210 214 212 206 202 201 200 198 195 192 188 183 181 177 175 180 180 178 176 175 176 176 175 175 177 180 181 178 173 173 172 168 161 160 163 170 168 175 179
204 217 222 220 215 210 217 238 226 208 214 217 214 210 207 203 203 201 197 193 189 185 181 177 176 178 176 174 172 171 171 173 174 177 179 183 185 184 179 180 178 173 169 171 174 184 185 182 176
204 213 218 219 206 211 221 234 229 217 221 223 218 213 209 208 205 198 193 189 186 185 181 178 175 176 171 167 165 163 166 173 176 181 184 185 186 187 185 180 183 180 181 183 181 178 179 182 164
216 216 222 222 215 219 229 237 236 228 225 227 224 218 214 212 203 192 189 186 183 184 183 181 178 177 174 171 173 174 178 178 180 179 184 186 187 187 186 183 183 187 193 191 186 178 174 181 166
214 218 224 222 214 226 239 247 244 235 231 227 225 220 214 205 195 190 187 186 187 187 188 186 186 183 182 180 177 181 174 179 179 173 180 187 189 189 188 189 188 189 191 193 191 186 188 192 198
215 219 219 218 223 229 247 252 237 229 228 230 229 227 219 206 199 191 189 189 189 190 191 190 188 186 184 177 168 159 161 170 179 180 183 190 193 192 188 190 189 189 191 195 198 195 198 198 200
219 217 217 210 211 222 218 249 232 220 220 221 220 217 216 208 202 195 191 190 191 192 191 193 189 187 184 180 180 180 186 189 194 187 186 185 189 187 187 190 190 190 193 196 200 205 208 202 201
217 200 206 213 225 239 224 242 244 209 218 219 217 213 211 206 201 196 193 191 190 185 184 188 189 187 186 188 187 189 193 190 181 180 180 181 182 183 184 187 187 190 193 197 198 200 208 210 210
175 163 168 202 217 233 222 223 247 215 219 216 212 210 208 201 199 199 194 189 186 180 178 180 184 185 186 190 191 192 189 184 179 182 182 184 184 185 186 186 187 191 193 197 201 201 205 212 216
183 173 180 194 208 229 201 218 244 237 231 221 212 208 202 197 195 193 188 186 184 181 179 179 179 181 184 188 192 192 190 188 187 186 188 185 187 191 195 192 194 195 197 198 199 204 209 213 216
194 196 205 205 210 207 195 222 233 258 243 232 220 210 200 195 196 194 189 187 185 182 179 179 178 177 178 183 188 189 189 189 190 191 189 190 193 196 193 194 197 198 197 197 199 206 212 216 220
193 207 234 250 220 215 208 227 262 285 262 223 208 199 197 200 200 196 188 187 183 179 179 178 176 173 174 177 179 182 184 185 182 182 186 191 194 192 191 192 195 200 201 202 201 209 213 218 223
218 187 194 208 200 215 212 222 230 235 237 218 216 211 205 200 192 188 186 183 177 174 174 174 172 170 170 170 172 174 178 180 179 179 183 187 192 191 192 193 194 200 203 205 205 212 215 219 224
184 189 206 211 242 227 216 209 313 261 265 229 217 206 188 178 173 171 170 170 163 157 159 160 162 161 160 162 163 165 171 173 175 180 185 189 195 197 198 198 200 202 204 206 208 213 214 221 227
208 208 204 207 209 232 234 222 33 355 351 296 161 109 125 137 142 144 141 139 145 148 151 152 154 156 158 159 159 158 162 168 172 178 186 193 199 200 200 201 203 204 206 207 210 212 212 219 227
Height
1513 1515 1517 1520 1519 1513 1506 1500 1501 1503 1504 1506 1507 1507 1505 1505 1507 1513 1513 1512 1515 1518 1521 1524 1527 1529 1532 1534 1535 1537 1538 1539 1540 1541 1542 1542 1543 1543 1543 1544 1544 1544 1544 1544 1544 1544 1544 1545 1545
1513 1515 1519 1518 1512 1508 1502 1498 1501 1501 1504 1506 1507 1507 1506 1507 1509 1510 1510 1512 1515 1519 1522 1524 1527 1530 1532 1534 1536 1537 1539 1540 1541 1542 1543 1543 1544 1544 1544 1545 1545 1545 1545 1545 1545 1545 1546 1546 1546
1512 1514 1518 1512 1506 1500 1496 1496 1498 1502 1505 1506 1506 1507 1507 1508 1509 1510 1510 1512 1516 1519 1522 1525 1527 1530 1532 1535 1536 1538 1539 1541 1542 1543 1543 1544 1545 1545 1545 1546 1546 1546 1546 1546 1546 1547 1547 1547 1547
1512 1515 1515 1509 1500 1496 1494 1497 1500 1502 1505 1506 1505 1506 1508 1508 1509 1509 1510 1513 1517 1520 1523 1525 1528 1531 1533 1535 1537 1538 1540 1541 1542 1543 1544 1545 1545 1546 1546 1547 1547 1547 1547 1547 1547 1548 1548 1548 1548
1511 1511 1507 1502 1496 1494 1497 1499 1501 1500 1501 1503 1504 1503 1506 1507 1507 1508 1511 1514 1518 1521 1523 1526 1528 1531 1533 1535 1537 1539 1540 1542 1543 1544 1545 1546 1546 1547 1547 1547 1548 1548 1548 1548 1548 1549 1549 1549 1549
1510 1506 1500 1494 1492 1494 1497 1500 1501 1499 1500 1503 1504 1503 1506 1506 1507 1509 1512 1515 1519 1521 1524 1526 1529 1531 1534 1536 1538 1539 1541 1542 1543 1544 1545 1546 1547 1547 1548 1548 1548 1549 1549 1549 1549 1549 1549 1549 1549
1506 1501 1493 1489 1489 1491 1494 1498 1499 1498 1499 1501 1503 1503 1505 1506 1507 1509 1512 1516 1519 1521 1524 1527 1529 1532 1534 1536 1538 1540 1541 1543 1544 1545 1546 1547 1547 1548 1548 1549 1549 1549 1549 1550 1550 1550 1550 1550 1550
1503 1500 1493 1489 1489 1489 1493 1496 1497 1498 1498 1501 1503 1502 1503 1505 1506 1509 1512 1515 1518 1521 1524 1527 1529 1532 1534 1536 1538 1540 1541 1543 1544 1545 1546 1547 1548 1548 1549 1549 1549 1550 1550 1550 1550 1550 1550 1550 1550
1502 1499 1488 1487 1488 1488 1493 1494 1496 1498 1499 1500 1501 1502 1503 1503 1506 1509 1512 1515 1518 1521 1524 1526 1529 1531 1534 1536 1538 1539 1541 1543 1544 1545 1546 1547 1548 1548 1549 1549 1549 1550 1550 1550 1550 1550 1551 1551 1551
1499 1492 1485 1487 1488 1489 1491 1492 1494 1496 1496 1498 1499 1500 1501 1502 1505 1508 1510 1513 1516 1519 1522 1525 1528 1531 1533 1535 1537 1539 1541 1542 1543 1545 1545 1547 1547 1548 1548 1549 1549 1550 1550 1550 1551 1551 1551 1551 1551
1493 1488 1487 1490 1491 1492 1492 1492 1494 1493 1493 1494 1496 1498 1500 1502 1505 1507 1510 1513 1515 1518 1521 1524 1527 1530 1532 1534 1536 1538 1540 1541 1542 1544 1545 1546 1547 1547 1548 1548 1549 1549 1550 1550 1550 1551 1551 1551 1551
1491 1489 1490 1490 1492 1492 1492 1492 1493 1492 1492 1494 1496 1497 1498 1501 1503 1506 1509 1512 1515 1517 1520 1523 1526 1528 1531 1533 1535 1537 1538 1540 1541 1542 1544 1545 1546 1546 1547 1548 1548 1549 1549 1550 1550 1550 1550 1551 1551
1488 1488 1490 1491 1491 1492 1492 1492 1491 1491 1492 1493 1494 1495 1497 1500 1503 1506 1509 1511 1513 1516 1518 1521 1524 1527 1529 1532 1534 1536 1537 1539 1540 1541 1542 1544 1544 1545 1546 1547 1547 1548 1548 1549 1549 1550 1550 1550 1550
1486 1488 1488 1489 1489 1490 1490 1490 1490 1488 1490 1491 1492 1494 1496 1498 1501 1504 1506 1508 1511 1514 1517 1519 1522 1525 1528 1530 1532 1534 1536 1537 1539 1540 1541 1542 1543 1544 1545 1546 1546 1547 1547 1548 1548 1549 1549 1549 1549
1486 1487 1486 1486 1487 1488 1490 1486 1485 1487 1489 1489 1491 1492 1494 1496 1499 1501 1503 1506 1509 1512 1515 1517 1520 1523 1526 1528 1530 1532 1534 1535 1537 1538 1539 1541 1542 1543 1543 1544 1545 1545 1546 1547 1547 1547 1548 1548 1547
1484 1484 1482 1481 1484 1485 1488 1480 1480 1484 1486 1487 1488 1490 1492 1494 1496 1499 1501 1504 1507 1510 1512 1515 1518 1521 1523 1526 1528 1530 1532 1533 1535 1536 1537 1539 1540 1541 1542 1543 1543 1544 1545 1545 1545 1546 1546 1546 1546
1479 1477 1476 1478 1480 1481 1481 1476 1477 1481 1483 1483 1485 1486 1489 1491 1493 1496 1498 1501 1504 1507 1510 1512 1515 1518 1521 1523 1525 1527 1529 1531 1532 1534 1535 1536 1538 1539 1540 1541 1541 1542 1543 1543 1543 1544 1544 1544 1544
1472 1472 1473 1474 1476 1478 1477 1475 1476 1478 1480 1480 1481 1483 1485 1487 1489 1492 1495 1498 1501 1504 1507 1510 1513 1515 1518 1521 1523 1525 1527 1528 1530 1531 1533 1534 1535 1537 1538 1538 1539 1540 1540 1541 1541 1542 1542 1542 1542
1468 1470 1471 1472 1475 1476 1473 1472 1472 1474 1476 1477 1478 1479 1481 1484 1487 1489 1492 1495 1498 1501 1504 1507 1509 1512 1515 1517 1519 1521 1523 1525 1527 1528 1530 1531 1533 1534 1535 1536 1536 1537 1538 1538 1539 1539 1540 1540 1539
1470 1470 1470 1472 1475 1475 1472 1470 1469 1470 1471 1472 1474 1475 1477 1480 1483 1485 1487 1490 1494 1497 1500 1503 1506 1509 1511 1514 1516 1518 1520 1522 1524 1525 1527 1528 1530 1531 1532 1533 1533 1534 1535 1536 1536 1536 1537 1537 1537
1468 1468 1468 1471 1474 1474 1474 1467 1463 1464 1467 1469 1470 1472 1474 1476 1478 1481 1483 1486 1489 1493 1496 1499 1502 1505 1508 1510 1513 1515 1517 1519 1521 1522 1523 1525 1526 1528 1529 1530 1531 1531 1532 1532 1533 1533 1534 1534 1534
1465 1466 1468 1470 1472 1470 1472 1463 1452 1456 1460 1462 1465 1467 1469 1472 1474 1477 1479 1482 1485 1489 1493 1496 1499 1502 1504 1507 1509 1511 1513 1515 1517 1519 1520 1522 1523 1524 1525 1526 1527 1528 1529 1529 1530 1530 1531 1531 1531
1463 1465 1468 1469 1470 1471 1469 1467 1448 1453 1455 1455 1458 1462 1465 1468 1470 1473 1475 1478 1481 1485 1488 1492 1495 1498 1501 1503 1506 1508 1510 1512 1514 1515 1517 1518 1519 1521 1522 1523 1524 1525 1525 1526 1527 1527 1527 1527 1528
1465 1467 1469 1470 1470 1471 1461 1461 1447 1446 1446 1449 1454 1458 1461 1464 1467 1469 1472 1475 1478 1481 1484 1487 1490 1494 1497 1499 1502 1504 1506 1508 1510 1512 1513 1514 1515 1517 1518 1519 1520 1521 1522 1523 1523 1523 1524 1524 1524
1463 1465 1468 1469 1468 1458 1455 1456 1445 1443 1446 1448 1451 1455 1458 1461 1463 1466 1468 1471 1473 1476 1479 1483 1486 1489 1492 1495 1498 1500 1503 1505 1507 1508 1509 1511 1512 1513 1514 1515 1516 1517 1518 1519 1519 1520 1520 1520 1520
1459 1458 1457 1456 1452 1449 1456 1450 1441 1446 1448 1449 1451 1453 1456 1458 1460 1462 1464 1467 1469 1472 1476 1479 1482 1485 1488 1491 1494 1497 1499 1501 1503 1505 1506 1507 1508 1509 1510 1511 1513 1514 1514 1515 1516 1516 1516 1516 1516
1459 1456 1456 1454 1453 1451 1447 1445 1444 1446 1448 1449 1450 1452 1454 1456 1458 1459 1461 1464 1466 1469 1472 1475 1478 1481 1484 1487 1490 1493 1495 1497 1499 1501 1502 1504 1505 1506 1507 1508 1508 1510 1510 1511 1512 1512 1512 1512 1512
1458 1458 1459 1457 1452 1444 1441 1443 1441 1444 1445 1448 1449 1450 1452 1454 1455 1457 1459 1461 1463 1466 1469 1472 1475 1478 1481 1484 1487 1489 1491 1493 1495 1497 1498 1500 1501 1502 1503 1504 1504 1505 1506 1507 1507 1508 1508 1508 1508
1460 1460 1457 1454 1450 1441 1438 1441 1444 1445 1446 1448 1448 1450 1451 1452 1454 1455 1457 1459 1461 1463 1466 1469 1472 1475 1478 1481 1483 1486 1488 1490 1492 1493 1495 1496 1497 1498 1499 1500 1500 1501 1502 1502 1503 1503 1504 1504 1504
1459 1457 1456 1453 1453 1447 1440 1445 1448 1448 1449 1449 1449 1450 1451 1452 1453 1454 1456 1457 1459 1461 1464 1466 1469 1473 1476 1478 1480 1483 1485 1486 1488 1490 1491 1492 1493 1494 1495 1496 1496 1497 1497 1498 1498 1499 1499 1499 1499